TimeCST,TemperatureF,Dew PointF,Humidity,Sea Level PressureIn,VisibilityMPH,Wind Direction,Wind SpeedMPH,Gust SpeedMPH,PrecipitationIn,Events,Conditions,WindDirDegrees,DateUTC
12:15 AM,10.4,-0.4,62,30.12,10.0,SSE,10.4,-,N/A,,Overcast,150,2014-01-22 06:15:00
12:35 AM,10.4,-0.4,62,30.11,10.0,SSE,11.5,-,N/A,,Overcast,150,2014-01-22 06:35:00
12:55 AM,10.4,-0.4,62,30.09,10.0,SSE,11.5,-,N/A,,Overcast,150,2014-01-22 06:55:00
1:15 AM,10.4,-0.4,62,30.07,10.0,SSE,11.5,-,N/A,,Overcast,160,2014-01-22 07:15:00
1:35 AM,10.4,1.4,67,30.06,10.0,South,12.7,-,N/A,,Overcast,170,2014-01-22 07:35:00
1:55 AM,10.4,1.4,67,30.06,10.0,South,11.5,-,N/A,,Overcast,180,2014-01-22 07:55:00
2:15 AM,10.4,1.4,67,30.05,10.0,South,10.4,-,N/A,,Overcast,180,2014-01-22 08:15:00
2:35 AM,12.2,1.4,62,30.04,10.0,South,9.2,-,N/A,,Overcast,180,2014-01-22 08:35:00
2:55 AM,12.2,1.4,62,30.04,10.0,South,10.4,-,N/A,,Overcast,190,2014-01-22 08:55:00
3:15 AM,12.2,1.4,62,30.03,10.0,South,10.4,-,N/A,,Mostly Cloudy,190,2014-01-22 09:15:00
3:55 AM,12.2,3.2,67,30.01,10.0,South,11.5,-,N/A,,Overcast,190,2014-01-22 09:55:00
4:15 AM,12.2,3.2,67,30.01,10.0,South,9.2,-,N/A,,Overcast,190,2014-01-22 10:15:00
4:35 AM,12.2,5.0,73,30.00,10.0,South,9.2,-,N/A,,Overcast,190,2014-01-22 10:35:00
4:55 AM,12.2,5.0,73,30.00,10.0,SSW,9.2,-,N/A,,Overcast,200,2014-01-22 10:55:00
5:15 AM,14.0,5.0,67,29.99,10.0,SSW,8.1,-,N/A,,Overcast,200,2014-01-22 11:15:00
5:35 AM,14.0,6.8,73,29.98,10.0,South,6.9,-,N/A,,Overcast,190,2014-01-22 11:35:00
5:55 AM,14.0,5.0,67,29.98,10.0,SSW,6.9,-,N/A,,Overcast,210,2014-01-22 11:55:00
6:15 AM,14.0,6.8,73,29.99,10.0,SW,6.9,-,N/A,,Overcast,220,2014-01-22 12:15:00
6:35 AM,14.0,6.8,73,29.99,10.0,SW,5.8,-,N/A,,Overcast,220,2014-01-22 12:35:00
6:55 AM,15.8,6.8,68,29.99,10.0,SW,8.1,-,N/A,,Overcast,230,2014-01-22 12:55:00
7:15 AM,15.8,6.8,68,30.00,10.0,West,9.2,-,N/A,Snow,Light Snow,260,2014-01-22 13:15:00
7:35 AM,17.6,8.6,68,30.00,4.0,WNW,12.7,18.4,N/A,Snow,Light Snow,300,2014-01-22 13:35:00
7:55 AM,17.6,10.4,73,30.01,9.0,NW,16.1,-,N/A,Snow,Light Snow,320,2014-01-22 13:55:00
8:15 AM,17.6,8.6,68,30.01,9.0,NW,21.9,28.8,N/A,Snow,Light Snow,310,2014-01-22 14:15:00
8:35 AM,17.6,6.8,63,30.02,10.0,NW,20.7,29.9,N/A,Snow,Light Snow,320,2014-01-22 14:35:00
8:55 AM,17.6,8.6,68,30.02,10.0,NW,23.0,-,N/A,,Overcast,310,2014-01-22 14:55:00
9:15 AM,17.6,6.8,63,30.04,10.0,NW,19.6,28.8,N/A,,Overcast,320,2014-01-22 15:15:00
9:35 AM,17.6,6.8,63,30.04,10.0,NW,20.7,-,N/A,,Overcast,310,2014-01-22 15:35:00
9:55 AM,17.6,6.8,63,30.04,10.0,NW,19.6,26.5,N/A,,Scattered Clouds,320,2014-01-22 15:55:00
10:15 AM,17.6,6.8,63,30.04,10.0,WNW,15.0,21.9,N/A,,Partly Cloudy,300,2014-01-22 16:15:00
10:35 AM,17.6,6.8,63,30.03,10.0,WNW,15.0,23.0,N/A,,Scattered Clouds,300,2014-01-22 16:35:00
10:55 AM,19.4,8.6,63,30.04,10.0,WNW,16.1,-,N/A,,Mostly Cloudy,300,2014-01-22 16:55:00
11:35 AM,17.6,8.6,68,30.05,7.0,WNW,17.3,32.2,N/A,Snow,Light Snow,300,2014-01-22 17:35:00
11:55 AM,17.6,6.8,63,30.04,10.0,WNW,18.4,-,N/A,,Overcast,290,2014-01-22 17:55:00
12:15 PM,17.6,6.8,63,30.04,10.0,WNW,19.6,-,N/A,,Overcast,300,2014-01-22 18:15:00
12:35 PM,17.6,6.8,63,30.05,10.0,NW,18.4,26.5,N/A,,Overcast,310,2014-01-22 18:35:00
12:55 PM,17.6,6.8,63,30.06,10.0,NW,21.9,28.8,N/A,,Overcast,310,2014-01-22 18:55:00
1:15 PM,17.6,6.8,63,30.05,10.0,NW,19.6,29.9,N/A,Snow,Light Snow,310,2014-01-22 19:15:00
1:35 PM,17.6,6.8,63,30.05,10.0,WNW,19.6,29.9,N/A,Snow,Light Snow,300,2014-01-22 19:35:00
1:55 PM,19.4,8.6,63,30.05,10.0,WNW,20.7,29.9,N/A,Snow,Light Snow,300,2014-01-22 19:55:00
2:15 PM,19.4,8.6,63,30.05,10.0,WNW,20.7,28.8,N/A,,Mostly Cloudy,300,2014-01-22 20:15:00
2:35 PM,19.4,6.8,58,30.06,10.0,WNW,19.6,26.5,N/A,,Mostly Cloudy,300,2014-01-22 20:35:00
2:55 PM,19.4,8.6,63,30.07,9.0,WNW,18.4,25.3,N/A,Snow,Light Snow,300,2014-01-22 20:55:00
3:15 PM,17.6,10.4,73,30.08,3.0,WNW,20.7,28.8,N/A,Snow,Light Snow,300,2014-01-22 21:15:00
3:35 PM,17.6,10.4,73,30.09,6.0,NW,23.0,28.8,N/A,Snow,Light Snow,310,2014-01-22 21:35:00
3:55 PM,17.6,5.0,58,30.09,10.0,NW,25.3,33.4,N/A,,Mostly Cloudy,310,2014-01-22 21:55:00
4:15 PM,15.8,5.0,62,30.12,10.0,NW,20.7,31.1,N/A,,Mostly Cloudy,320,2014-01-22 22:15:00
4:35 PM,15.8,3.2,58,30.13,10.0,NW,19.6,31.1,N/A,,Mostly Cloudy,310,2014-01-22 22:35:00
4:55 PM,14.0,3.2,62,30.14,9.0,NW,24.2,33.4,N/A,Snow,Light Snow,320,2014-01-22 22:55:00
5:15 PM,12.2,-2.2,53,30.16,10.0,NW,26.5,-,N/A,,Scattered Clouds,320,2014-01-22 23:15:00
5:35 PM,10.4,-2.2,57,30.18,10.0,NW,19.6,36.8,N/A,,Partly Cloudy,320,2014-01-22 23:35:00
5:55 PM,8.6,-0.4,67,30.19,10.0,NW,26.5,-,N/A,,Scattered Clouds,320,2014-01-22 23:55:00
6:15 PM,8.6,-0.4,67,30.21,10.0,NNW,25.3,-,N/A,,Mostly Cloudy,330,2014-01-23 00:15:00
6:35 PM,6.8,-4.0,61,30.22,10.0,NW,25.3,34.5,N/A,,Scattered Clouds,320,2014-01-23 00:35:00
6:55 PM,5.0,-5.8,61,30.24,10.0,NW,23.0,36.8,N/A,Snow,Light Snow,310,2014-01-23 00:55:00
7:15 PM,5.0,-7.6,56,30.26,10.0,NW,25.3,32.2,N/A,,Mostly Cloudy,320,2014-01-23 01:15:00
7:35 PM,3.2,-7.6,61,30.28,10.0,NW,21.9,33.4,N/A,,Mostly Cloudy,320,2014-01-23 01:35:00
7:55 PM,3.2,-5.8,66,30.29,10.0,NW,21.9,31.1,N/A,,Mostly Cloudy,320,2014-01-23 01:55:00
8:15 PM,3.2,-5.8,66,30.31,3.0,NW,21.9,29.9,N/A,,Haze,320,2014-01-23 02:15:00
8:35 PM,1.4,-7.6,66,30.32,4.0,NNW,27.6,36.8,N/A,,Freezing Rain,330,2014-01-23 02:35:00
8:55 PM,1.4,-9.4,61,30.34,8.0,NW,24.2,33.4,N/A,,Overcast,320,2014-01-23 02:55:00
9:15 PM,-0.4,-11.2,60,30.34,10.0,NNW,27.6,-,N/A,,Mostly Cloudy,330,2014-01-23 03:15:00
9:35 PM,-0.4,-11.2,60,30.35,10.0,NW,28.8,-,N/A,,Mostly Cloudy,320,2014-01-23 03:35:00
9:55 PM,-0.4,-11.2,60,30.38,10.0,NW,17.3,33.4,N/A,,Overcast,320,2014-01-23 03:55:00
10:15 PM,-0.4,-11.2,60,30.39,10.0,NW,20.7,-,N/A,,Overcast,320,2014-01-23 04:15:00
10:35 PM,-0.4,-11.2,60,30.40,10.0,NW,23.0,32.2,N/A,,Mostly Cloudy,320,2014-01-23 04:35:00
10:55 PM,-2.2,-11.2,66,30.40,10.0,NW,21.9,29.9,N/A,,Overcast,320,2014-01-23 04:55:00
11:15 PM,-2.2,-13.0,60,30.41,10.0,NW,20.7,-,N/A,,Mostly Cloudy,320,2014-01-23 05:15:00
11:35 PM,-2.2,-13.0,60,30.43,10.0,NW,21.9,-,N/A,,Scattered Clouds,320,2014-01-23 05:35:00
11:55 PM,-2.2,-13.0,60,30.43,10.0,NW,21.9,-,N/A,,Partly Cloudy,320,2014-01-23 05:55:00